Regional Weather Roundup
Issued by NWS Wakefield, VA

Home | Current Version | Previous Version | Graphics & Text | Print | Product List | Glossary On
Versions: 1 2 3 4 5 6 7 8 9 10 11 12 13 14 15 16 17 18 19 20 21 22 23 24 25 26 27 28 29 30 31 32 33 34 35 36 37 38 39 40 41 42 43 44 45 46 47 48 49 50
000
ASUS41 KAKQ 031814
RWRAKQ

REGIONAL WEATHER ROUNDUP
NATIONAL WEATHER SERVICE WAKEFIELD VA
200 PM EDT THU SEP 03 2015

Note: "fair" indicates few or no clouds below 12,000 feet with no
significant weather and/or obstructions to visibility. * = Denotes
station may not report precipitation (e.g., rain,snow,etc.),
thunder or fog.

VAZ042-051-052>054-056-031900-
NORTHERN VIRGINIA

CITY           SKY/WX    TMP DP  RH WIND       PRES   REMARKS
WASH NATIONAL  MOSUNNY   92  69  47 VRB6      29.89F HX  97
DULLES         MOSUNNY   91  67  44 VRB5G17   29.90F
FORT BELVOIR   MOSUNNY   91  67  45 NW10      29.89F
QUANTICO       MOSUNNY   89  70  53 S6        29.90F
FREDERICKSBRG* MOSUNNY   91  69  48 NW6       29.89F HX  95
STAFFORD*      PTSUNNY   91  65  41 NW3       29.94F
WARRENTON      MOSUNNY   92  69  45 NW7       29.91F HX  97
CULPEPER*      SUNNY     89  69  51 NW9       29.92F
MANASSAS*      MOSUNNY   91  66  43 NW7       29.90F
LEESBURG*      MOSUNNY   91  70  49 NW9       29.92F HX  97
WINCHESTER     MOSUNNY   90  64  43 CALM      29.93F
FRONT ROYAL*   FAIR      86  68  54 NW5       29.92F
LURAY*         MOCLDY    88  64  45 NW6       29.95F
$$

VAZ048-049-060>072-079>083-031900-
CENTRAL AND SOUTH CENTRAL VIRGINIA

CITY           SKY/WX    TMP DP  RH WIND       PRES   REMARKS
RICHMOND       MOSUNNY   92  68  45 VRB3      29.91F HX  96
CHESTERFIELD*  FAIR      91  64  40 NW5       29.93F
PETERSBURG*    SUNNY     91  74  57 NW5       29.93S HX 101
HANOVER        SUNNY     90  69  50 VRB3      29.93F
TAPPAHANNOCK*  SUNNY     92  61  34 CALM      29.91F
QUINTON*       FAIR      89  71  54 W6        29.90F
CHARLOTTSVILLE MOSUNNY   82  70  66 SE9       29.93F
GORDONSVILLE*  MOCLDY    84  69  61 W3        29.92F
ORANGE*        MOSUNNY   90  64  43 CALM      29.93F
LOUISA*        MOSUNNY   93  66  40 NE3       29.91F HX  96
BUMPASS*       FAIR      89  69  51 CALM      29.91F
FARMVILLE*     MOSUNNY   93  63  36 NE6       29.92F
CREWE*         FAIR     N/A N/A N/A NW5       29.93F
FORT PICKETT*  FAIR      90  67  47 NE7       29.93F
CHASE CITY*    FAIR      90  71  54 CALM      29.94F HX  97
CLARKSVILLE*   FAIR      86  70  58 SW3       29.94F
SOUTH HILL*    MOSUNNY   86  71  61 CALM      29.99F
LAWRENCEVILLE* FAIR      88  72  58 CALM      29.93F
EMPORIA*       SUNNY     88  70  55 W3        29.93F
$$

VAZ088>098-031900-
SOUTHEAST VIRGINIA

CITY           SKY/WX    TMP DP  RH WIND       PRES   REMARKS
NORFOLK        SUNNY     87  69  54 NE7       29.90F
VIRGINIA BEACH MOSUNNY   93  66  40 NW7       29.89F HX  96
NORFOLK NAVAL  MOSUNNY   88  70  55 NE6       29.91F
WEST POINT*    SUNNY     93  67  42 W6        29.91F HX  97
SALUDA*        FAIR      89  75  63 NE3       29.89F HX  98
NEWPORT NEWS   MOSUNNY   91  67  44 CALM      29.90F
LANGLEY AFB    MOSUNNY   89  72  57 NE8       29.89F HX  95
FORT EUSTIS    SUNNY     89  69  52 W6        29.88F
WILLIAMSBURG*  SUNNY     97  72  44 CALM      29.91F HX 105
HR EXEC AP*      N/A     90  72  55 NW3       29.91F HX  96
FRANKLIN*      MOSUNNY   90  69  49 NW6       29.91F
WAKEFIELD      MOSUNNY   91  68  46 VRB3      29.91F HX  95
$$

VAZ020-022-025-037-045-031900-
WEST CENTRAL AND SOUTHWEST VIRGINIA

CITY           SKY/WX    TMP DP  RH WIND       PRES   REMARKS
STAUNTON*      PTSUNNY   91  62  38 CALM      29.98F
WAYNESBORO*    FAIR      90  63  39 CALM      29.99F
HOT SPRINGS VA CLOUDY    66  63  87 NW9       30.13F THUNDER
LYNCHBURG      MOSUNNY   89  64  43 N8        29.97F
DANVILLE       MOSUNNY   88  65  46 CALM      29.95F
SOUTH BOSTON*  FAIR      89  65  45 E6        29.94F
MARTINSVILLE   PTSUNNY   89  64  42 E3        30.00F
ROANOKE        MOSUNNY   90  62  39 N9        30.00F
BLACKSBURG     MOSUNNY   84  64  51 CALM      30.07F
DUBLIN*        CLOUDY    84  66  54 N5        30.07
MARION*        MOSUNNY   82  63  52 N5        30.11F
HILLSVILLE*    FAIR      79  64  60 N6        30.08F
RICHLANDS*     MOCLDY    78  31  17 NW5       30.11F
WISE*          PTSUNNY   79  63  57 N8        30.13F
ABINGDON*      PTSUNNY   82  62  50 NE3       30.08F
$$

MDZ021>025-VAZ099-100-031900-
SOUTHERN MARYLAND AND THE DELMARVA PENINSULA

CITY           SKY/WX    TMP DP  RH WIND       PRES   REMARKS
PATUXENT RIVER MOSUNNY   89  70  53 E7        29.89F
BAY BRIDGE APT   N/A     88  64  45 CALM      29.89S
LEONARDTOWN    NOT AVBL
DOVER          SUNNY     90  70  50 VRB6      29.86F HX  95
GEORGETOWN     PTSUNNY   91  65  41 NE7       29.88F
EASTON         MOSUNNY   91  70  49 NW7       29.92F HX  97
CAMBRIDGE      SUNNY     91  68  46 N7        29.88S HX  95
SALISBURY      MOSUNNY   90  68  48 VRB7      29.88S
OCEAN CITY     SUNNY     87  68  52 E8        29.88F
WALLOPS ISLAND MOSUNNY   88  71  57 SE8       29.89S
ACCOMACK*        N/A    N/A N/A N/A MISG        N/A
$$

NCZ012>017-030>032-031900-
NORTH CENTRAL AND EASTERN NORTH CAROLINA

CITY           SKY/WX    TMP DP  RH WIND       PRES   REMARKS
ROANOKE RAPIDS FAIR      86  68  54 CALM      29.92F
RALEIGH        PTSUNNY   87  69  54 CALM      29.95F
ELIZABETH CITY SUNNY     87  71  58 W7        29.90F
AHOSKIE*       SUNNY     85  70  61 CALM      29.92F
EDENTON*       SUNNY     82  71  69 SW7       29.92F
CURRITUCK*     MOSUNNY   87  68  52 N5        29.91F
KILL DEVIL HLS SUNNY     90  70  51 CALM      29.90F HX  95
MANTEO         SUNNY     84  68  58 W3        29.91F
CAPE HATTERAS  MOSUNNY   82  71  69 NW7       29.92F
TARBORO*       FAIR      87  71  58 N3        29.93F
GOLDSBORO      MOSUNNY   87  70  58 S3        29.92F
WASHINGTON     MOSUNNY   83  71  64 N5        29.92F
GREENVILLE     MOSUNNY   84  70  61 NW3       29.95F
NEW BERN       MOSUNNY   87  71  58 VRB5      29.93F
WILMINGTON     PTSUNNY   89  74  60 E6        29.91F HX  98
$$

VAZ048-031900-
ELSEWHERE

CITY           SKY/WX    TMP DP  RH WIND       PRES   REMARKS
HARRISBURG PA  SUNNY     90  66  45 W10       29.89F
BALTIMORE      MOSUNNY   91  66  43 NW6       29.88F
ANNAPOLIS      SUNNY     84  72  67 SE10      29.88F
ANDREWS AFB    MOSUNNY   91  67  44 W7        29.89F
PHILADELPHIA   MOSUNNY   92  62  36 NW8       29.85F
HENDERSON NC   MOSUNNY   84  63  48 N5        29.95F
GREENSBORO     CLOUDY    85  64  49 CALM      29.98F
ROCKY MOUNT    PTSUNNY   89  69  51 VRB6      29.93F
$$

VAZ100-031900-
MARINE

STATION/POSITION TIME  TEMP    WIND        PRES    WAVE   SWELL
                       AIR SEA DIR/SP/G            HT/PER HT/PER
                 (UTC) (F)     (DEG/KT/KT) (MB)    (FT/S) (FT/S)
BRANDYWINE LGT   1700   79 77  310/  5/  6 1012.3
CAPE MAY NJ      1700   79 81  270/  7/  9 1011.7
LEWES DE         1700   78 76  360/  4/  5 1012.0
15NM E FENWICK I 1750   78 80  320/  4/  4 1011.9F   1/13   2/13
OCEAN-CITY-INLET 1700   83 77   80/  6/  9 1011.3
THOMAS POINT MD  1700   81 81   80/  4/  4 1012.9F
GOOSES REEF MD   1800   82 81   50/  6/  6 1013.3F
COVE POINT MD    1700   81      20/  5/  6 1013.2
SOLOMONS ISLAND  1700      81                N/A
BISHOPS HEAD MD  1700   80 82  250/  7/  7 1011.6
PINEY POINT MD   1705          310/  4/  4   N/A
POTOMAC MD       1800   82 83  260/  4/  4 1011.2F   0
CAMBRIDGE MD     1700   84 81  330/  6/  8 1011.3
LEWISETTA VA     1700   82 82   80/  3/  4 1012.3
RAPPAHANNOCK LGT 1700          340/  4/  4 1013.4
STINGRAY PT      1700   82 82   CALM  /  2 1013.4F   0
YORK RVR RNG VA  1700   83      90/  3/  4 1012.5
JAMESTOWN VA     1800   85 83  280/  4/  6   N/A
DOMINION TERM VA 1700   81     320/  5/  6 1012.8
KIPTOPEKE VA     1700      80  310/  9/ 10   N/A
CHES BAY BRIDGE  1700   79 79  330/  4/  5 1012.6
CAPE HENRY VA    1700   80     320/  5/  7   N/A
CHESAPEAKE LGHT  1700   80     280/  4/  5 1013.7F
WILLOUBY STN VA  1700   82     230/  3/  3 1014.0
CAPE HENRY BUOY  1728      81                N/A     1/13
1ST LANDING BUOY 1800      80              1012.3F   1
CAPE CHARLES BUO 1726      80                N/A     1/ 9   2/ 9
OFFSHORE WE BUOY 1711      80                N/A     2/ 3   2/ 9
64NM E OF VA BCH 1750   79 80  300/  6/  8 1012.2F   2/14   2/14
DUCK PIER NC     1700   84 80   80/  2/  3 1012.5
44100 DUCK FRF   1724      80                N/A     1/13
44056 DUCK FRF   1711      82                N/A     1/13
OREGON INLET NC  1700   83 82  300/  3/  6 1013.6
HATTERAS NC      1700   78 82  280/  3/  5 1013.8
DIAMOND SHLS NC  1750   80 86  310/  4/  6 1013.3F   1/ 9   2/ 9
CAPE LOOKOUT NC  1800   80     160/  7/  8 1012.8F
$$



USA.gov is the U.S. government's official web portal to all federal, state and local government web resources and services.